Time,TemperatureF,DewpointF,PressureIn,WindDirection,WindDirectionDegrees,WindSpeedMPH,WindSpeedGustMPH,Humidity,HourlyPrecipIn,Conditions,Clouds,dailyrainin,SolarRadiationWatts/m^2,SoftwareType,DateUTC
2013-03-23 00:03:00,26.0,-5.0,-100.00,NNE,30,3.0,8.0,25,0.00,,,0.01,0.000000,,2013-03-23 04:03:00,
2013-03-23 00:13:00,26.0,-5.0,-100.00,NNE,30,3.0,8.0,25,0.00,,,0.01,0.000000,,2013-03-23 04:13:00,
2013-03-23 00:43:00,26.0,-3.0,-100.00,South,169,2.0,7.0,27,0.00,,,0.01,0.000000,,2013-03-23 04:43:00,
2013-03-23 00:53:00,26.0,-3.0,-100.00,South,169,2.0,7.0,27,0.00,,,0.01,0.000000,,2013-03-23 04:53:00,
2013-03-23 01:02:00,26.0,-3.0,-100.00,South,169,2.0,7.0,27,0.00,,,0.01,0.000000,,2013-03-23 05:02:00,
2013-03-23 01:12:00,26.0,-3.0,-100.00,South,169,2.0,7.0,27,0.00,,,0.01,0.000000,,2013-03-23 05:12:00,
2013-03-23 01:42:00,27.0,-7.0,-100.00,South,185,3.0,9.0,22,0.00,,,0.01,0.000000,,2013-03-23 05:42:00,
2013-03-23 01:53:00,27.0,-7.0,-100.00,South,185,3.0,9.0,22,0.00,,,0.01,0.000000,,2013-03-23 05:53:00,
2013-03-23 02:02:00,27.0,-7.0,-100.00,South,185,3.0,9.0,22,0.00,,,0.01,0.000000,,2013-03-23 06:02:00,
2013-03-23 02:12:00,27.0,-7.0,-100.00,South,185,3.0,9.0,22,0.00,,,0.01,0.000000,,2013-03-23 06:12:00,
2013-03-23 02:42:00,27.0,-39.0,-100.00,WNW,289,3.0,7.0,4,0.00,,,0.01,0.000000,,2013-03-23 06:42:00,
2013-03-23 02:52:00,27.0,-39.0,-100.00,WNW,289,3.0,7.0,4,0.00,,,0.01,0.000000,,2013-03-23 06:52:00,
2013-03-23 03:03:00,27.0,-39.0,-100.00,WNW,289,3.0,7.0,4,0.00,,,0.01,0.000000,,2013-03-23 07:03:00,
2013-03-23 03:12:00,27.0,-39.0,-100.00,WNW,289,3.0,7.0,4,0.00,,,0.01,0.000000,,2013-03-23 07:12:00,
2013-03-23 03:33:00,28.0,-14.0,-100.00,WNW,284,5.0,10.0,15,0.00,,,0.01,0.000000,,2013-03-23 07:33:00,
2013-03-23 03:42:00,28.0,-14.0,-100.00,WNW,284,5.0,10.0,15,0.00,,,0.01,0.000000,,2013-03-23 07:42:00,
2013-03-23 03:52:00,28.0,-14.0,-100.00,WNW,284,5.0,10.0,15,0.00,,,0.01,0.000000,,2013-03-23 07:52:00,
2013-03-23 04:03:00,28.0,-14.0,-100.00,WNW,284,5.0,10.0,15,0.00,,,0.01,0.000000,,2013-03-23 08:03:00,
2013-03-23 04:13:00,28.0,-14.0,-100.00,WNW,284,5.0,10.0,15,0.00,,,0.01,0.000000,,2013-03-23 08:13:00,
2013-03-23 04:42:00,28.0,-8.0,-100.00,West,268,4.0,9.0,20,0.00,,,0.01,0.000000,,2013-03-23 08:42:00,
2013-03-23 04:53:00,28.0,-8.0,-100.00,West,268,4.0,9.0,20,0.00,,,0.01,0.000000,,2013-03-23 08:53:00,
2013-03-23 05:02:00,28.0,-8.0,-100.00,West,268,4.0,9.0,20,0.00,,,0.01,0.000000,,2013-03-23 09:02:00,
2013-03-23 05:12:00,28.0,-8.0,-100.00,West,268,4.0,9.0,20,0.00,,,0.01,0.000000,,2013-03-23 09:12:00,
2013-03-23 05:43:00,28.0,-7.0,-100.00,West,271,5.0,13.0,21,0.00,,,0.01,0.000000,,2013-03-23 09:43:00,
2013-03-23 05:53:00,28.0,-7.0,-100.00,West,271,5.0,13.0,21,0.00,,,0.01,0.000000,,2013-03-23 09:53:00,
2013-03-23 06:03:00,28.0,-7.0,-100.00,West,271,5.0,13.0,21,0.00,,,0.01,0.000000,,2013-03-23 10:03:00,
2013-03-23 06:13:00,28.0,-7.0,-100.00,West,271,5.0,13.0,21,0.00,,,0.01,0.000000,,2013-03-23 10:13:00,
2013-03-23 06:43:00,28.0,19.0,-100.00,WNW,287,4.0,14.0,69,0.00,,,0.01,0.000000,,2013-03-23 10:43:00,
2013-03-23 06:53:00,28.0,19.0,-100.00,WNW,287,4.0,14.0,69,0.00,,,0.01,0.000000,,2013-03-23 10:53:00,
2013-03-23 07:03:00,28.0,19.0,-100.00,WNW,287,4.0,14.0,69,0.00,,,0.01,0.000000,,2013-03-23 11:03:00,
2013-03-23 07:12:00,28.0,19.0,-100.00,WNW,287,4.0,14.0,69,0.00,,,0.01,0.000000,,2013-03-23 11:12:00,
2013-03-23 07:42:00,28.0,28.0,-100.00,WNW,288,3.0,11.0,100,0.00,,,0.01,2.000000,,2013-03-23 11:42:00,
2013-03-23 07:52:00,28.0,28.0,-100.00,WNW,288,3.0,11.0,100,0.00,,,0.01,2.000000,,2013-03-23 11:52:00,
2013-03-23 08:02:00,28.0,28.0,-100.00,WNW,288,3.0,11.0,100,0.00,,,0.01,2.000000,,2013-03-23 12:02:00,
2013-03-23 08:13:00,28.0,28.0,-100.00,WNW,288,3.0,11.0,100,0.00,,,0.01,2.000000,,2013-03-23 12:13:00,
2013-03-23 08:43:00,29.0,1.0,-100.00,West,271,5.0,14.0,29,0.00,,,0.01,14.000000,,2013-03-23 12:43:00,
2013-03-23 08:53:00,29.0,1.0,-100.00,West,271,5.0,14.0,29,0.00,,,0.01,14.000000,,2013-03-23 12:53:00,
2013-03-23 09:03:00,29.0,1.0,-100.00,West,271,5.0,14.0,29,0.00,,,0.01,14.000000,,2013-03-23 13:03:00,
2013-03-23 09:12:00,29.0,1.0,-100.00,West,271,5.0,14.0,29,0.00,,,0.01,14.000000,,2013-03-23 13:12:00,
2013-03-23 09:43:00,31.0,31.0,-100.00,WNW,283,6.0,13.0,99,0.00,,,0.01,51.000000,,2013-03-23 13:43:00,
2013-03-23 09:53:00,31.0,31.0,-100.00,WNW,283,6.0,13.0,99,0.00,,,0.01,51.000000,,2013-03-23 13:53:00,
2013-03-23 10:03:00,31.0,31.0,-100.00,WNW,283,6.0,13.0,99,0.00,,,0.01,51.000000,,2013-03-23 14:03:00,
2013-03-23 10:12:00,31.0,31.0,-100.00,WNW,283,6.0,13.0,99,0.00,,,0.01,51.000000,,2013-03-23 14:12:00,
2013-03-23 10:43:00,34.0,34.0,-100.00,SW,222,3.0,15.0,100,0.00,,,0.01,104.000000,,2013-03-23 14:43:00,
2013-03-23 10:53:00,34.0,34.0,-100.00,SW,222,3.0,15.0,100,0.00,,,0.01,104.000000,,2013-03-23 14:53:00,
2013-03-23 11:04:00,34.0,34.0,-100.00,SW,222,3.0,15.0,100,0.00,,,0.01,104.000000,,2013-03-23 15:04:00,
2013-03-23 11:13:00,34.0,34.0,-100.00,SW,222,3.0,15.0,100,0.00,,,0.01,104.000000,,2013-03-23 15:13:00,
2013-03-23 11:44:00,35.0,35.0,-100.00,NW,311,7.0,17.0,100,0.04,,,0.05,303.000000,,2013-03-23 15:44:00,
2013-03-23 11:53:00,35.0,35.0,-100.00,NW,311,7.0,17.0,100,0.04,,,0.05,303.000000,,2013-03-23 15:53:00,
2013-03-23 12:03:00,35.0,35.0,-100.00,NW,311,7.0,17.0,100,0.04,,,0.05,303.000000,,2013-03-23 16:03:00,
2013-03-23 12:13:00,35.0,35.0,-100.00,NW,311,7.0,17.0,100,0.04,,,0.05,303.000000,,2013-03-23 16:13:00,
2013-03-23 12:43:00,36.0,36.0,-100.00,WNW,294,10.0,20.0,100,0.00,,,0.05,412.000000,,2013-03-23 16:43:00,
2013-03-23 12:54:00,36.0,36.0,-100.00,WNW,294,10.0,20.0,100,0.00,,,0.05,412.000000,,2013-03-23 16:54:00,
2013-03-23 13:03:00,36.0,36.0,-100.00,WNW,294,10.0,20.0,100,0.00,,,0.05,412.000000,,2013-03-23 17:03:00,
2013-03-23 13:12:00,36.0,36.0,-100.00,WNW,294,10.0,20.0,100,0.00,,,0.05,412.000000,,2013-03-23 17:12:00,
2013-03-23 13:43:00,40.0,40.0,-100.00,West,281,10.0,20.0,100,0.00,,,0.05,687.000000,,2013-03-23 17:43:00,
2013-03-23 13:53:00,40.0,40.0,-100.00,West,281,10.0,20.0,100,0.00,,,0.05,687.000000,,2013-03-23 17:53:00,
2013-03-23 14:03:00,40.0,40.0,-100.00,West,281,10.0,20.0,100,0.00,,,0.05,687.000000,,2013-03-23 18:03:00,
2013-03-23 14:12:00,40.0,40.0,-100.00,West,281,10.0,20.0,100,0.00,,,0.05,687.000000,,2013-03-23 18:12:00,
2013-03-23 14:43:00,37.0,37.0,-100.00,West,278,10.0,23.0,100,0.00,,,0.05,540.000000,,2013-03-23 18:43:00,
2013-03-23 14:53:00,37.0,37.0,-100.00,West,278,10.0,23.0,100,0.00,,,0.05,540.000000,,2013-03-23 18:53:00,
2013-03-23 15:03:00,37.0,37.0,-100.00,West,278,10.0,23.0,100,0.00,,,0.05,540.000000,,2013-03-23 19:03:00,
2013-03-23 15:13:00,37.0,37.0,-100.00,West,278,10.0,23.0,100,0.00,,,0.05,540.000000,,2013-03-23 19:13:00,
2013-03-23 15:43:00,40.0,40.0,-100.00,NW,321,9.0,21.0,100,0.00,,,0.05,511.000000,,2013-03-23 19:43:00,
2013-03-23 15:53:00,40.0,40.0,-100.00,NW,321,9.0,21.0,100,0.00,,,0.05,511.000000,,2013-03-23 19:53:00,
2013-03-23 16:03:00,40.0,40.0,-100.00,NW,321,9.0,21.0,100,0.00,,,0.05,511.000000,,2013-03-23 20:03:00,
2013-03-23 16:13:00,40.0,40.0,-100.00,NW,321,9.0,21.0,100,0.00,,,0.05,511.000000,,2013-03-23 20:13:00,
2013-03-23 16:43:00,38.0,38.0,-100.00,NW,322,7.0,19.0,100,0.00,,,0.05,264.000000,,2013-03-23 20:43:00,
2013-03-23 16:53:00,38.0,38.0,-100.00,NW,322,7.0,19.0,100,0.00,,,0.05,264.000000,,2013-03-23 20:53:00,
2013-03-23 17:03:00,38.0,38.0,-100.00,NW,322,7.0,19.0,100,0.00,,,0.05,264.000000,,2013-03-23 21:03:00,
2013-03-23 17:12:00,38.0,38.0,-100.00,NW,322,7.0,19.0,100,0.00,,,0.05,264.000000,,2013-03-23 21:12:00,
2013-03-23 17:43:00,36.0,36.0,-100.00,NW,325,8.0,21.0,100,0.00,,,0.04,152.000000,,2013-03-23 21:43:00,
2013-03-23 17:54:00,36.0,36.0,-100.00,NW,325,8.0,21.0,100,0.00,,,0.04,152.000000,,2013-03-23 21:54:00,
2013-03-23 18:03:00,36.0,36.0,-100.00,NW,325,8.0,21.0,100,0.00,,,0.04,152.000000,,2013-03-23 22:03:00,
2013-03-23 18:13:00,36.0,36.0,-100.00,NW,325,8.0,21.0,100,0.00,,,0.04,152.000000,,2013-03-23 22:13:00,
2013-03-23 18:43:00,36.0,36.0,-100.00,WNW,298,8.0,17.0,100,0.00,,,0.04,83.000000,,2013-03-23 22:43:00,
2013-03-23 18:53:00,36.0,36.0,-100.00,WNW,298,8.0,17.0,100,0.00,,,0.04,83.000000,,2013-03-23 22:53:00,
2013-03-23 19:03:00,36.0,36.0,-100.00,WNW,298,8.0,17.0,100,0.00,,,0.04,83.000000,,2013-03-23 23:03:00,
2013-03-23 19:13:00,36.0,36.0,-100.00,WNW,298,8.0,17.0,100,0.00,,,0.04,83.000000,,2013-03-23 23:13:00,
2013-03-23 19:43:00,35.0,35.0,-100.00,NW,315,5.0,17.0,100,0.00,,,0.04,27.000000,,2013-03-23 23:43:00,
2013-03-23 19:53:00,35.0,35.0,-100.00,NW,315,5.0,17.0,100,0.00,,,0.04,27.000000,,2013-03-23 23:53:00,
2013-03-23 20:02:00,35.0,35.0,-100.00,NW,315,5.0,17.0,100,0.00,,,0.04,27.000000,,2013-03-24 00:02:00,
2013-03-23 20:13:00,35.0,35.0,-100.00,NW,315,5.0,17.0,100,0.00,,,0.04,27.000000,,2013-03-24 00:13:00,
2013-03-23 20:42:00,34.0,34.0,-100.00,West,271,6.0,16.0,100,0.00,,,0.04,1.000000,,2013-03-24 00:42:00,
2013-03-23 20:53:00,34.0,34.0,-100.00,West,271,6.0,16.0,100,0.00,,,0.04,1.000000,,2013-03-24 00:53:00,
2013-03-23 21:02:00,34.0,34.0,-100.00,West,271,6.0,16.0,100,0.00,,,0.04,1.000000,,2013-03-24 01:02:00,
2013-03-23 21:12:00,34.0,34.0,-100.00,West,271,6.0,16.0,100,0.00,,,0.04,1.000000,,2013-03-24 01:12:00,
2013-03-23 21:33:00,33.0,0.0,-100.00,NNW,342,4.0,15.0,24,0.00,,,0.04,0.000000,,2013-03-24 01:33:00,
2013-03-23 21:43:00,33.0,0.0,-100.00,NNW,342,4.0,15.0,24,0.00,,,0.04,0.000000,,2013-03-24 01:43:00,
2013-03-23 21:53:00,33.0,0.0,-100.00,NNW,342,4.0,15.0,24,0.00,,,0.04,0.000000,,2013-03-24 01:53:00,
2013-03-23 22:03:00,33.0,0.0,-100.00,NNW,342,4.0,15.0,24,0.00,,,0.04,0.000000,,2013-03-24 02:03:00,
2013-03-23 22:12:00,33.0,0.0,-100.00,NNW,342,4.0,15.0,24,0.00,,,0.04,0.000000,,2013-03-24 02:12:00,
2013-03-23 22:43:00,33.0,-2.0,-100.00,NNW,332,5.0,14.0,22,0.00,,,0.04,0.000000,,2013-03-24 02:43:00,
2013-03-23 22:52:00,33.0,-2.0,-100.00,NNW,332,5.0,14.0,22,0.00,,,0.04,0.000000,,2013-03-24 02:52:00,
2013-03-23 23:03:00,33.0,-2.0,-100.00,NNW,332,5.0,14.0,22,0.00,,,0.04,0.000000,,2013-03-24 03:03:00,
2013-03-23 23:13:00,33.0,-2.0,-100.00,NNW,332,5.0,14.0,22,0.00,,,0.04,0.000000,,2013-03-24 03:13:00,
2013-03-23 23:43:00,33.0,1.0,-100.00,NW,314,5.0,11.0,25,0.00,,,0.04,0.000000,,2013-03-24 03:43:00,
2013-03-23 23:53:00,33.0,1.0,-100.00,NW,314,5.0,11.0,25,0.00,,,0.04,0.000000,,2013-03-24 03:53:00,